DW5435 Weather Reports


Display with metric or nautical units.
time (UTC)temp
F
wind
direction
speed
MPH
gust
MPH
rain 1hr
in
rain 24hr
in
rain mn
in
humidity
%
barometer
mb
20260503202516 70 0.0 0.0 0.00 0.00 0.00 38 1017.4
20260503201515 70 0.0 0.0 0.00 0.00 0.00 38 1017.5
20260503200517 70 0.0 0.0 0.00 0.00 0.00 40 1017.8
20260503195517 70 0.0 0.0 0.00 0.00 0.00 40 1017.9
20260503194517 70 0.0 0.0 0.00 0.00 0.00 42 1018.0
20260503193515 71 0.0 0.0 0.00 0.00 0.00 40 1018.2
20260503192515 71 0.0 0.0 0.00 0.00 0.00 41 1018.6
20260503191517 71 0.0 0.0 0.00 0.00 0.00 41 1018.7
20260503190517 71 0.0 0.0 0.00 0.00 0.00 41 1018.8
20260503185517 71 0.0 0.0 0.00 0.00 0.00 40 1019.1
20260503184516 72 0.0 0.0 0.00 0.00 0.00 39 1019.3
20260503183517 72 0.0 0.0 0.00 0.00 0.00 40 1019.4
20260503182537 72 0.0 0.0 0.00 0.00 0.00 37 1019.4
20260503181515 72 0.0 0.0 0.00 0.00 0.00 39 1019.5
20260503180517 72 0.0 0.0 0.00 0.00 0.00 39 1019.6
20260503175517 73 0.0 0.0 0.00 0.00 0.00 38 1019.6
20260503174537 73 0.0 0.0 0.00 0.00 0.00 37 1019.7
20260503173517 73 0.0 0.0 0.00 0.00 0.00 36 1019.7
20260503172537 73 0.0 0.0 0.00 0.00 0.00 39 1019.9
20260503171517 72 0.0 0.0 0.00 0.00 0.00 41 1020.0
20260503170517 72 0.0 0.0 0.00 0.00 0.00 39 1020.2
20260503150517 64 0.0 0.0 0.00 0.00 0.00 53 1020.9
20260503130519 47 0.0 0.0 0.00 0.00 0.00 84 1019.7
20260503110516 45 0.0 0.0 0.00 0.00 0.00 82 1019.0
20260503081516 47 0.0 0.0 0.00 0.00 0.00 79 1017.9
20260503080516 47 0.0 0.0 0.00 0.00 0.00 79 1017.7
20260503072536 47 0.0 0.0 0.00 0.00 0.00 79 1017.3
20260503071557 47 0.0 0.0 0.00 0.00 0.00 78 1017.2
20260503070516 47 0.0 0.0 0.00 0.00 0.00 78 1017.1
20260503054516 49 0.0 0.0 0.00 0.00 0.00 75 1016.9
20260503053516 50 0.0 0.0 0.00 0.00 0.00 73 1016.9
20260503052537 50 0.0 0.0 0.00 0.00 0.00 73 1016.8
20260503051516 50 0.0 0.0 0.00 0.00 0.00 72 1016.8
20260503050516 51 0.0 0.0 0.00 0.00 0.00 72 1016.9
20260503045517 51 0.0 0.0 0.00 0.00 0.00 71 1016.8
20260503044516 51 0.0 0.0 0.00 0.00 0.00 71 1016.6
20260503043536 52 0.0 0.0 0.00 0.00 0.00 71 1016.7
20260503042516 52 0.0 0.0 0.00 0.00 0.00 70 1016.6
20260503041516 53 0.0 0.0 0.00 0.00 0.00 69 1016.5
20260503040517 53 0.0 0.0 0.00 0.00 0.00 69 1016.5
20260503035515 53 0.0 0.0 0.00 0.00 0.00 67 1016.3
20260503034515 54 0.0 0.0 0.00 0.00 0.00 66 1016.3
20260503033515 54 0.0 0.0 0.00 0.00 0.00 65 1016.3
20260503032515 55 0.0 0.0 0.00 0.00 0.00 64 1016.2
20260503031515 55 0.0 0.0 0.00 0.00 0.00 63 1016.1
20260503030515 56 0.0 0.0 0.00 0.00 0.00 63 1016.1
20260503025535 56 0.0 0.0 0.00 0.00 0.00 62 1015.9
20260503024515 57 0.0 0.0 0.00 0.00 0.00 61 1015.8
20260503023515 57 0.0 0.0 0.00 0.00 0.00 60 1015.7
20260503022515 58 0.0 0.0 0.00 0.00 0.00 59 1015.5
20260503021515 59 0.0 0.0 0.00 0.00 0.00 58 1015.4
20260503020515 59 0.0 0.0 0.00 0.00 0.00 58 1015.3
20260503015517 60 0.0 0.0 0.00 0.00 0.00 57 1015.3
20260503014515 60 0.0 0.0 0.00 0.00 0.00 56 1015.1
20260503013515 61 0.0 0.0 0.00 0.00 0.00 55 1014.8
20260503012515 62 0.0 0.0 0.00 0.00 0.00 53 1014.7
20260503011535 62 0.0 0.0 0.00 0.00 0.00 49 1014.5
20260503010517 62 0.0 0.0 0.00 0.00 0.00 46 1014.4
20260503005535 63 0.0 0.0 0.00 0.00 0.00 47 1014.4
20260503004515 63 0.0 0.0 0.00 0.00 0.00 47 1014.1
20260503003515 64 0.0 0.0 0.00 0.00 0.00 49 1013.8
20260503002515 64 0.0 0.0 0.00 0.00 0.00 45 1013.6
20260503001517 65 0.0 0.0 0.00 0.00 0.00 46 1013.4
20260503000515 65 0.0 0.0 0.00 0.00 0.00 46 1013.2
20260502235515 66 0.0 0.0 0.00 0.00 0.00 45 1012.9
20260502234515 66 0.0 0.0 0.00 0.00 0.00 46 1012.8
20260502233517 66 0.0 0.0 0.00 0.00 0.00 45 1012.5
20260502232515 67 0.0 0.0 0.00 0.00 0.00 49 1012.4
20260502231515 67 0.0 0.0 0.00 0.00 0.00 47 1012.2
20260502230535 67 0.0 0.0 0.00 0.00 0.00 48 1012.1
20260502225537 68 0.0 0.0 0.00 0.00 0.00 48 1012.0
20260502224517 68 0.0 0.0 0.00 0.00 0.00 49 1012.1
20260502223515 68 0.0 0.0 0.00 0.00 0.00 51 1011.9
20260502222515 68 0.0 0.0 0.00 0.00 0.00 52 1011.7
20260502221515 68 0.0 0.0 0.00 0.00 0.00 53 1011.6
20260502220515 68 0.0 0.0 0.00 0.00 0.00 57 1011.4
20260502215555 68 0.0 0.0 0.00 0.00 0.00 57 1011.3
20260502214517 68 0.0 0.0 0.00 0.00 0.00 55 1011.1
20260502213515 68 0.0 0.0 0.00 0.00 0.00 56 1011.0
20260502212515 68 0.0 0.0 0.00 0.00 0.00 57 1010.9
20260502211515 68 0.0 0.0 0.00 0.00 0.00 58 1010.9
20260502210517 68 0.0 0.0 0.00 0.00 0.00 58 1010.9
20260502205517 68 0.0 0.0 0.00 0.00 0.00 61 1010.8
20260502204535 69 0.0 0.0 0.00 0.00 0.00 61 1010.8
20260502203535 69 0.0 0.0 0.00 0.00 0.00 59 1010.8